Location: Ceske Budejovice
(48.9830°N, 14.4670°E)
Time: 07:29:30
(UTC+01:00)

ISS - Pass Details

Date: 29 November 2019
Orbit: 411 x 421 km, 51.6° (Epoch: 12 December)

Event Time Altitude Azimuth Distance (km) Brightness Sun altitude
Rises 19:13:51 0° 282° (WNW) 2,360 1.2 -29.6°
Reaches altitude 10° 19:15:59 10° 287° (WNW) 1,499 -0.1 -30.0°
Enters shadow 19:16:33 14° 289° (WNW) 1,277 -0.6 -30.1°
